Hourly Weather Ludwikowo

Today, 15 May, Saturday

Time Temperature Precipitation Wind Pressure Humidity
00:00 +10°C° 0 mm 4 mps 749 mmHg 91%
01:00 +10°C° 0 mm 4 mps 749 mmHg 91%
02:00 +10°C° 0 mm 4 mps 749 mmHg 91%
03:00 +8°C° 0 mm 4 mps 749 mmHg 91%
04:00 +8°C° 0 mm 4 mps 750 mmHg 91%
05:00 +8°C° 0 mm 4 mps 750 mmHg 87%
06:00 +10°C° 0 mm 4 mps 750 mmHg 84%
07:00 +11°C° 0 mm 4 mps 750 mmHg 82%
08:00 +12°C° 0 mm 4 mps 751 mmHg 75%
09:00 +14°C° 0 mm 4 mps 751 mmHg 69%
10:00 +15°C° 0 mm 4 mps 751 mmHg 62%
11:00 +17°C° 0 mm 4 mps 750 mmHg 60%
12:00 +17°C° 0 mm 3 mps 750 mmHg 58%
13:00 +18°C° 0 mm 3 mps 750 mmHg 56%
14:00 +18°C° 0.2 mm 3 mps 750 mmHg 59%
15:00 +18°C° 0.2 mm 3 mps 750 mmHg 63%
16:00 +18°C° 0.2 mm 3 mps 750 mmHg 66%
17:00 +17°C° 0.2 mm 3 mps 749 mmHg 72%
18:00 +16°C° 0.2 mm 3 mps 749 mmHg 78%
19:00 +15°C° 0.2 mm 2 mps 749 mmHg 84%
20:00 +14°C° 0.7 mm 2 mps 749 mmHg 87%
21:00 +13°C° 0.7 mm 2 mps 749 mmHg 90%
22:00 +12°C° 0.7 mm 2 mps 749 mmHg 93%
23:00 +12°C° 0.1 mm 2 mps 749 mmHg 93%

Tomorrow, 16 May, Sunday

Time Temperature Precipitation Wind Pressure Humidity
00:00 +12°C° 0.1 mm 1 mps 749 mmHg 94%
01:00 +12°C° 0.1 mm 1 mps 749 mmHg 94%
02:00 +11°C° 0 mm 1 mps 749 mmHg 94%
03:00 +10°C° 0 mm 2 mps 749 mmHg 94%
04:00 +9°C° 0 mm 2 mps 749 mmHg 94%
05:00 +10°C° 0 mm 2 mps 749 mmHg 92%
06:00 +11°C° 0 mm 3 mps 749 mmHg 89%
07:00 +12°C° 0 mm 3 mps 749 mmHg 86%
08:00 +13°C° 0 mm 3 mps 749 mmHg 81%
09:00 +14°C° 0 mm 4 mps 749 mmHg 75%
10:00 +15°C° 0 mm 4 mps 749 mmHg 69%
11:00 +15°C° 0 mm 4 mps 749 mmHg 66%
12:00 +17°C° 0 mm 4 mps 749 mmHg 62%
13:00 +17°C° 0 mm 4 mps 748 mmHg 59%
14:00 +17°C° 0 mm 4 mps 748 mmHg 60%
15:00 +17°C° 0 mm 3 mps 748 mmHg 62%
16:00 +17°C° 0 mm 3 mps 748 mmHg 63%
17:00 +16°C° 0.1 mm 2 mps 748 mmHg 67%
18:00 +15°C° 0.1 mm 2 mps 748 mmHg 72%
19:00 +14°C° 0.1 mm 1 mps 748 mmHg 77%
20:00 +13°C° 0 mm 1 mps 748 mmHg 79%
21:00 +12°C° 0 mm 2 mps 748 mmHg 82%
22:00 +10°C° 0 mm 2 mps 748 mmHg 85%
23:00 +9°C° 0 mm 2 mps 748 mmHg 87%

Day after tomorrow, 17 May, Monday

Time Temperature Precipitation Wind Pressure Humidity
00:00 +9°C° 0 mm 2 mps 748 mmHg 89%
01:00 +8°C° 0 mm 2 mps 747 mmHg 91%
02:00 +8°C° 0 mm 2 mps 747 mmHg 92%
03:00 +8°C° 0 mm 2 mps 747 mmHg 92%
04:00 +8°C° 0 mm 2 mps 747 mmHg 93%
05:00 +9°C° 0 mm 3 mps 747 mmHg 90%
06:00 +10°C° 0 mm 3 mps 748 mmHg 87%
07:00 +12°C° 0 mm 4 mps 748 mmHg 84%
08:00 +11°C° 0.1 mm 4 mps 748 mmHg 86%
09:00 +11°C° 0.1 mm 3 mps 748 mmHg 88%
10:00 +11°C° 0.1 mm 3 mps 748 mmHg 89%
11:00 +13°C° 0.2 mm 3 mps 748 mmHg 82%
12:00 +14°C° 0.2 mm 3 mps 748 mmHg 75%
13:00 +15°C° 0.2 mm 4 mps 748 mmHg 67%
14:00 +16°C° 0.3 mm 3 mps 748 mmHg 69%
15:00 +16°C° 0.3 mm 3 mps 748 mmHg 70%
16:00 +16°C° 0.3 mm 3 mps 747 mmHg 71%
17:00 +14°C° 0.4 mm 3 mps 748 mmHg 76%
18:00 +13°C° 0.4 mm 3 mps 748 mmHg 80%
19:00 +13°C° 0.4 mm 2 mps 748 mmHg 84%
20:00 +12°C° 0 mm 2 mps 748 mmHg 87%
21:00 +10°C° 0 mm 3 mps 748 mmHg 91%
22:00 +9°C° 0 mm 3 mps 748 mmHg 94%
23:00 +9°C° 0 mm 3 mps 748 mmHg 95%

18 May, Tuesday

Time Temperature Precipitation Wind Pressure Humidity
00:00 +9°C° 0 mm 3 mps 748 mmHg 95%
01:00 +8°C° 0 mm 3 mps 748 mmHg 96%
02:00 +8°C° 0 mm 3 mps 748 mmHg 96%
03:00 +8°C° 0 mm 3 mps 748 mmHg 97%
04:00 +8°C° 0 mm 4 mps 748 mmHg 97%
05:00 +8°C° 0 mm 4 mps 748 mmHg 95%
06:00 +10°C° 0 mm 4 mps 749 mmHg 93%
07:00 +10°C° 0 mm 4 mps 749 mmHg 91%
08:00 +10°C° 0.2 mm 5 mps 749 mmHg 87%
09:00 +12°C° 0.2 mm 5 mps 749 mmHg 83%
10:00 +13°C° 0.2 mm 5 mps 749 mmHg 79%
11:00 +13°C° 0.3 mm 6 mps 749 mmHg 76%
12:00 +14°C° 0.3 mm 6 mps 749 mmHg 72%
13:00 +14°C° 0.3 mm 7 mps 749 mmHg 69%
14:00 +14°C° 0.2 mm 7 mps 749 mmHg 72%
15:00 +12°C° 0.2 mm 7 mps 750 mmHg 75%
16:00 +13°C° 0.2 mm 6 mps 750 mmHg 77%
17:00 +11°C° 0.1 mm 6 mps 750 mmHg 79%
18:00 +12°C° 0.1 mm 5 mps 751 mmHg 80%
19:00 +11°C° 0.1 mm 4 mps 751 mmHg 81%
20:00 +10°C° 0 mm 3 mps 751 mmHg 85%
21:00 +9°C° 0 mm 3 mps 751 mmHg 90%
22:00 +8°C° 0 mm 3 mps 752 mmHg 94%
23:00 +8°C° 0 mm 3 mps 752 mmHg 94%

19 May, Wednesday

Time Temperature Precipitation Wind Pressure Humidity
00:00 +7°C° 0 mm 3 mps 752 mmHg 95%
01:00 +7°C° 0 mm 3 mps 752 mmHg 96%
02:00 +6°C° 0 mm 4 mps 753 mmHg 96%
03:00 +5°C° 0 mm 4 mps 753 mmHg 96%
04:00 +5°C° 0 mm 4 mps 753 mmHg 96%
05:00 +6°C° 0 mm 4 mps 753 mmHg 90%
06:00 +8°C° 0 mm 5 mps 754 mmHg 84%
07:00 +9°C° 0 mm 5 mps 754 mmHg 79%
08:00 +10°C° 0 mm 6 mps 754 mmHg 73%
09:00 +11°C° 0 mm 6 mps 754 mmHg 67%
10:00 +13°C° 0 mm 6 mps 754 mmHg 61%
11:00 +13°C° 0 mm 6 mps 754 mmHg 57%
12:00 +14°C° 0 mm 6 mps 754 mmHg 52%
13:00 +15°C° 0 mm 6 mps 754 mmHg 48%
14:00 +15°C° 0 mm 5 mps 754 mmHg 49%
15:00 +15°C° 0 mm 5 mps 754 mmHg 50%
16:00 +15°C° 0 mm 5 mps 754 mmHg 51%
17:00 +13°C° 0.1 mm 4 mps 754 mmHg 60%
18:00 +12°C° 0.1 mm 4 mps 754 mmHg 69%
19:00 +11°C° 0.1 mm 3 mps 754 mmHg 78%
20:00 +10°C° 0 mm 3 mps 754 mmHg 81%
21:00 +9°C° 0 mm 3 mps 755 mmHg 85%
22:00 +8°C° 0 mm 3 mps 755 mmHg 88%
23:00 +8°C° 0 mm 3 mps 755 mmHg 90%

20 May, Thursday

Time Temperature Precipitation Wind Pressure Humidity
00:00 +7°C° 0 mm 3 mps 755 mmHg 93%
01:00 +6°C° 0 mm 4 mps 755 mmHg 95%
02:00 +6°C° 0 mm 4 mps 755 mmHg 96%
03:00 +5°C° 0 mm 4 mps 755 mmHg 97%
04:00 +5°C° 0 mm 4 mps 755 mmHg 98%
05:00 +6°C° 0 mm 4 mps 755 mmHg 93%
06:00 +8°C° 0 mm 5 mps 756 mmHg 88%
07:00 +9°C° 0 mm 5 mps 756 mmHg 83%
08:00 +9°C° 0.2 mm 6 mps 756 mmHg 80%
09:00 +10°C° 0.2 mm 6 mps 756 mmHg 76%
10:00 +11°C° 0.2 mm 6 mps 756 mmHg 73%
11:00 +13°C° 0.1 mm 6 mps 755 mmHg 68%
12:00 +13°C° 0.1 mm 6 mps 755 mmHg 63%
13:00 +14°C° 0.1 mm 6 mps 755 mmHg 58%
14:00 +14°C° 0.1 mm 5 mps 755 mmHg 58%
15:00 +15°C° 0.1 mm 5 mps 754 mmHg 58%
16:00 +15°C° 0.1 mm 4 mps 754 mmHg 58%
17:00 +14°C° 0.1 mm 4 mps 754 mmHg 64%
18:00 +13°C° 0.1 mm 4 mps 753 mmHg 71%
19:00 +12°C° 0.1 mm 4 mps 753 mmHg 77%
20:00 +11°C° 0.1 mm 4 mps 753 mmHg 80%
21:00 +10°C° 0.1 mm 4 mps 753 mmHg 83%
22:00 +10°C° 0.1 mm 4 mps 753 mmHg 87%
23:00 +10°C° 0 mm 3 mps 752 mmHg 88%
Show more

We Need Your Consent

Meteoprog and our Service Providers may store and access personal data such as cookies, device identifiers or other similar technologies on your device and process such data to personalise content and ads, as well as provide social media features and to analyse the traffic.

  • Store and/or access information on your device

    Cookies, device identifiers or other information can be stored or accessed on your device for the purposes indicated above.

  • Personalised ads and content, ad and content measurement, audience insights, and products development

    Ads and content can be personalised based on a profile. More data can be added to better personalise ads and content. Ad and content performance can be measured. Insights about the audience who saw the ads and content can be derived. Such data can be used to develop or improve user’s experience, systems and software.

By clicking ‘I Agree’ you will allow the use of indicated cookies, device identifiers, web beacons or other similar technologies. Your settings can be changed in the browser on your device.

For certain purposes, legitimate interests may be relied on, rather than consent. You can read more about this in our Privacy and Cookie Policy.